Regional Weather Roundup
Issued by NWS

Home | Current Version | Previous Version | Graphics & Text | Print | Product List | Glossary On
Versions: 1 2 3 4 5 6 7 8 9 10 11 12 13 14 15 16 17 18 19 20 21 22 23 24 25 26 27
000
ASUS45 KBOU 050407
RWRCO

WEATHER ROUNDUP FOR COLORADO
NATIONAL WEATHER SERVICE DENVER/BOULDER CO
1000 PM MDT WED MAY 04 2016

NOTE: "FAIR" INDICATES FEW OR NO CLOUDS BELOW 12000 FEET WITH NO
SIGNIFICANT WEATHER AND/OR OBSTRUCTIONS TO VISIBILITY.

COZ001>005-013-030-031-050500-
...NORTHWEST COLORADO...

CITY           SKY/WX    TMP DP  RH WIND       PRES   REMARKS
CRAIG          FAIR      51  35  54 CALM      30.17R
HAYDEN         FAIR      54  30  40 S5        30.18R
MEEKER         FAIR      50  34  54 VRB5      30.18R
MOUNT WERNER   NOT AVBL
STEAMBOAT SPGS FAIR      51  29  42 E8        30.20R
WALDEN         FAIR      39  23  52 CALM      30.29R
$$

COZ006>008-011-050500-
...WEST CENTRAL VALLEYS...

CITY           SKY/WX    TMP DP  RH WIND       PRES   REMARKS
GRAND JUNCTION FAIR      58  37  45 E3        30.08R
MONTROSE       FAIR      59  28  30 SE9       30.17R
EAGLE          FAIR      57  27  30 E5        30.21R
RIFLE          FAIR      57  32  38 E6        30.12R
DELTA          NOT AVBL
NUCLA          NOT AVBL
$$

COZ017>023-064>068-050500-
...SOUTHWEST COLORADO...

CITY           SKY/WX    TMP DP  RH WIND       PRES   REMARKS
DURANGO        FAIR      51  31  46 NE3       30.23R
CORTEZ         FAIR      51  29  42 VRB3      30.17R
PAGOSA SPRINGS FAIR      48  29  46 CALM      30.30R
TELLURIDE      FAIR      52  22  31 CALM      30.37R
WOLF CREEK PAS FAIR      36  19  51 SW17      30.54R
$$

COZ009-010-012-014-032>034-037-058>063-050500-
...CENTRAL COLORADO...

CITY           SKY/WX    TMP DP  RH WIND       PRES   REMARKS
ASPEN          FAIR      48  24  39 SW10      30.27R
BUENA VISTA    FAIR      48  28  46 CALM      30.29R
COPPER MTN     NOT AVBL
BERTHOUD PASS  FAIR      32  25  74 E10       30.53R WCI  24
COTTONWOOD PAS FAIR      52  19  28 CALM      30.39R
GUNNISON       FAIR      52  25  35 N7        30.30R
KREMMLING      FAIR      43  27  52 CALM      30.25R
LEADVILLE      FAIR      39  20  46 NE7       30.37R
MONARCH PASS   FAIR      39  23  52 SW17      30.60S
SALIDA         FAIR      57  28  32 S3        30.34R
SUNLIGHT       FAIR      46  21  36 CALM      30.47R
WILKERSON PASS FAIR      39  23  52 S12G17    30.50R
$$

COZ069>075-050500-
...SAN LUIS VALLEY/SANGRE DE CRISTO MOUNTAINS...

CITY           SKY/WX    TMP DP  RH WIND       PRES   REMARKS
ALAMOSA        FAIR      50  31  48 S9        30.25R
LA VETA PASS   FAIR      45  18  33 S5        30.41S
SAGUACHE       FAIR      46  32  57 NW10      30.28R
$$

COZ035-036-038>040-050500-
...NORTHERN COLORADO FRONT RANGE...

CITY           SKY/WX    TMP DP  RH WIND       PRES   REMARKS
DENVER INTL AP FAIR      50  39  66 SE12      30.16R
DMNS CITY PARK   N/A     60  35  39 N7        30.15S
AURORA         FAIR      54  39  55 SE15      30.18R
FRONT RANGE AP NOT AVBL
ERIE MUNI ARPT FAIR      52  40  61 SW7       30.15R
BOULDER MUN AP FAIR      59  34  38 SW5       30.16R
CENTENNIAL     FAIR      56  36  47 SE8       30.18R
BROOMFIELD     PTCLDY    63  32  31 CALM      30.18R
FORT COLLINS   FAIR      57  39  51 S6        30.15R
LONGMONT       FAIR      55  39  56 W6        30.17R
$$

COZ041-046-047-076>085-087-088-050500-
...PIKES PEAK/PALMER DIVIDE AND SOUTHERN FOOTHILLS...

CITY           SKY/WX    TMP DP  RH WIND       PRES   REMARKS
COLO. SPRINGS  FAIR      58  29  33 CALM      30.23R
A. F. ACADEMY  FAIR      54  32  43 CALM      30.23R
SCHRIEVER AFB  NOT AVBL
ELLICOTT       FAIR     N/A N/A N/A S10       30.20R
FALCON         NOT AVBL
FORT CARSON    FAIR      60  32  35 W8        30.19R
LIMON          FAIR      51  39  63 SE3       30.19R
MONUMENT HILL  FAIR      46  32  57 SE9       30.26R
TRINIDAD       FAIR      52  34  50 W7        30.17R
$$

COZ042>045-048>051-090-091-050500-
...NORTHEAST COLORADO...

CITY           SKY/WX    TMP DP  RH WIND       PRES   REMARKS
GREELEY ARPT   FAIR      55  39  54 SE5       30.13S
AKRON          FAIR      57  40  52 S13       30.15R
BURLINGTON     FAIR      53  41  63 SE10      30.15R
WRAY           NOT AVBL
STERLING       FAIR      52  43  71 SW5       30.11R
HOLYOKE        NOT AVBL
FORT MORGAN    FAIR      57  38  49 SE8       30.15R
$$

COZ086-089-092>099-050500-
...SOUTHEAST COLORADO...

CITY           SKY/WX    TMP DP  RH WIND       PRES   REMARKS
PUEBLO         FAIR      59  37  44 E3        30.13R
LA JUNTA       FAIR      64  37  36 SE10      30.12R
LAMAR          FAIR      61  42  49 VRB6      30.10R
SPRINGFIELD      N/A     54  42  64 S8        30.15R
$$




USA.gov is the U.S. government's official web portal to all federal, state and local government web resources and services.